Regional Weather Roundup
Issued by NWS

Home | Current Version | Previous Version | Text Only | Print | Product List | Glossary Off
Versions: 1 2 3 4 5 6 7 8 9 10 11 12 13 14 15 16 17 18 19 20 21 22 23 24 25 26 27 28 29 30 31 32 33 34 35 36 37 38 39 40 41 42 43 44 45 46 47 48 49

000
ASUS43 KDMX 220607
RWRIA

WEATHER ROUNDUP FOR IOWA
NATIONAL WEATHER SERVICE DES MOINES IA
100 AM CDT MON SEP 22 2014

NOTE: "FAIR" INDICATES FEW OR NO CLOUDS BELOW 12,000 FEET WITH NO
SIGNIFICANT WEATHER AND/OR OBSTRUCTIONS TO VISIBILITY.

* - THESE STATIONS ARE NOT NWS STATIONS...THUS NOT UNDER NWS
QUALITY CONTROL.  THEY ALSO DO NOT REPORT WEATHER SUCH
AS PRECIPITATION OR FOG.

IAZ001>003-012>014-020>022-031>034-043>046-220700-
   NORTHWEST IOWA

CITY           SKY/WX    TMP DP  RH WIND       PRES   REMARKS
CARROLL *      CLEAR     45  45 100 CALM      30.27S
CHEROKEE *     CLEAR     48  48 100 CALM      30.28R
DENISON *      CLEAR     48  48 100 CALM      30.26R
LE MARS *        N/A     46  46 100 CALM      30.28R
ORANGE CITY *  CLEAR     54  45  71 CALM      30.27S
SHELDON *      CLEAR     45  45 100 N3        30.26S
SIOUX CITY     CLEAR     48  46  93 W5        30.28R
6HR MIN TEMP:  48; 6HR MAX TEMP:  68;

SPENCER        CLEAR     43  42  97 W3        30.27S
6HR MIN TEMP:  43; 6HR MAX TEMP:  64;

STORM LAKE *   CLEAR     50  50 100 NE5       30.27R
$$

IAZ055>058-069>071-079>083-090>094-220700-
   SOUTHWEST IOWA

CITY           SKY/WX    TMP DP  RH WIND       PRES   REMARKS
ATLANTIC *     CLEAR     48  46  93 N5        30.27R
AUDUBON *      CLEAR     46  41  81 CALM      30.28R
CLARINDA *     CLEAR     46  46 100 CALM      30.28S FOG
COUNCIL BLFS * CLEAR     52  50  93 NE5       30.26S
CRESTON *      CLEAR     54  48  82 N6        30.27R
HARLAN  *      CLEAR     46  46 100 CALM      30.31R
LAMONI         CLEAR     53  48  83 N6        30.25S
6HR MIN TEMP:  51; 6HR MAX TEMP:  64;

RED OAK *      CLEAR     48  46  93 CALM      30.28R
SHENANDOAH *   CLEAR     48  46  93 CALM      30.28R
$$

IAZ047>049-059>061-072>074-084-220700-
   CENTRAL IOWA

CITY           SKY/WX    TMP DP  RH WIND       PRES   REMARKS
AMES           CLEAR     50  47  89 NW6       30.25R
6HR MIN TEMP:  49; 6HR MAX TEMP:  63;

ANKENY *         N/A     48  48 100 CALM      30.25R
CHARITON *     CLEAR     52  48  87 N5        30.24S
DES MOINES     CLEAR     56  48  74 N6        30.25R
6HR MIN TEMP:  56; 6HR MAX TEMP:  66;

GRINNELL*      CLEAR     49  46  91 NW3       30.24S
KNOXVILLE *    CLEAR     54  48  82 NW5       30.23S
MARSHALLTOWN   CLEAR     47  45  93 W5        30.23R
6HR MIN TEMP:  46; 6HR MAX TEMP:  61;

PELLA *        CLEAR     49  46  92 CALM      30.25S
PERRY *          N/A     49  47  96 NW3       30.26R
$$

IAZ004>006-015-016-023>025-035-036-220700-
   NORTH CENTRAL IOWA

CITY           SKY/WX    TMP DP  RH WIND       PRES   REMARKS
ALGONA *       CLEAR     50  48  93 NW5       30.27R
CLARION *        N/A     48  46  93 NW6       30.26R
ESTHERVILLE    CLEAR     45  43  93 NW5       30.26S
6HR MIN TEMP:  45; 6HR MAX TEMP:  61;

FORT DODGE *   CLEAR     46  45  93 CALM      30.27R
MASON CITY     CLEAR     48  46  93 NW5       30.26R
6HR MIN TEMP:  47; 6HR MAX TEMP:  60;

FOREST CITY *  CLEAR     50  50 100 NW5       30.26R
IOWA FALLS *     N/A     50  46  87 W6        30.26R
$$

IAZ007>011-017>019-026>030-037>042-050>054-066-220700-
   NORTHEAST IOWA

CITY           SKY/WX    TMP DP  RH WIND       PRES   REMARKS
CEDAR RAPIDS   CLEAR     48  46  93 N5        30.20S
6HR MIN TEMP:  47; 6HR MAX TEMP:  59;

CHARLES CITY * CLEAR     46  46 100 NW3       30.25R
CLINTON *      CLEAR     48  45  87 N7        30.22R
DECORAH *      CLEAR     48  46  93 CALM      30.22R
DUBUQUE        CLEAR     49  45  86 N3        30.21R
6HR MIN TEMP:  49; 6HR MAX TEMP:  59;

MONTICELLO *   CLEAR     45  45 100 CALM      30.21R
OELWEIN *      CLEAR     48  46  93 N8        30.23R
WATERLOO       CLEAR     47  45  93 N5        30.22R
6HR MIN TEMP:  47; 6HR MAX TEMP:  61;

$$

IAZ064-065-067-068-078-220700-
   EAST CENTRAL IOWA

CITY           SKY/WX    TMP DP  RH WIND       PRES   REMARKS
DAVENPORT      CLEAR     48  44  86 NW7       30.20R
6HR MIN TEMP:  47; 6HR MAX TEMP:  61;

IOWA CITY        N/A     47  46  97 W5        30.22S
6HR MIN TEMP:  47; 6HR MAX TEMP:  63;

MT. PLEASANT * CLEAR     54  47  78 NW5       30.21S
MUSCATINE *    CLEAR     50  48  93 CALM      30.21S
QUAD CITIES    CLEAR     54  46  74 N3        30.19R
6HR MIN TEMP:  54; 6HR MAX TEMP:  63;

$$

IAZ062-063-075>077-085>089-095>099-220700-
   SOUTHEAST IOWA

CITY           SKY/WX    TMP DP  RH WIND       PRES   REMARKS
BURLINGTON     CLEAR     52  49  89 NW5       30.20R
6HR MIN TEMP:  52; 6HR MAX TEMP:  62; 6HR PCP: TRACE;

FAIRFIELD *    CLEAR     48  46  93 NW6       30.22S
FORT MADISON * CLEAR     52  50  93 NW5       30.22R
KEOKUK *       CLEAR     54  50  87 NW3       30.21R
OSKALOOSA *      N/A     48  46  93 NW6       30.23F
CENTERVILLE *  CLEAR     48  48 100 NW5       30.25S
OTTUMWA        CLEAR     50  46  86 NW6       30.23S
6HR MIN TEMP:  49; 6HR MAX TEMP:  60;

WASHINGTON *   CLEAR     50  48  93 NW6       30.21F
$$

ABBREVIATIONS USED IN REMARKS
   TC - TEMPERATURES IN CELSIUS
  WCI - WIND CHILL INDEX
   HX - HEAT INDEX
  VSB - VISIBILITY
$$



USA.gov is the U.S. government's official web portal to all federal, state and local government web resources and services.